Simultaneous Nadir Overpasses (SNOs) Predictions

Prediction of SNOs between GOES-16 and NPP Satellite Orbit:

Table of predicted SNOs for the next 14.0 days since TLE Epoch: 8/17/2024
Index Date Time (GOES-16) GOES-16 Lat,Lon NPP Lat,Lon Distance(km) Time Diff (sec)
1 08/17/2024 06:11:28 0.05, -75.21 -0.64, -72.10 354.20 80
2 08/18/2024 18:33:25 -0.05, -75.21 -0.56, -77.40 250.47 80
3 08/19/2024 18:17:20 -0.04, -75.21 0.48, -72.87 266.59 80
4 08/21/2024 06:39:07 0.04, -75.23 0.67, -78.15 331.94 80
5 08/22/2024 06:17:42 0.04, -75.24 -0.31, -73.61 185.65 80
6 08/23/2024 18:39:38 -0.04, -75.25 -0.86, -78.92 417.57 80
7 08/24/2024 18:23:33 -0.04, -75.26 0.14, -74.38 100.38 80
8 08/26/2024 06:45:20 0.03, -75.29 1.00, -79.65 497.13 80
9 08/27/2024 06:23:55 0.03, -75.30 -0.00, -75.12 20.85 80
10 08/29/2024 18:27:05 -0.01, -75.34 -0.12, -75.90 63.54 80
11 08/30/2024 18:11:00 -0.00, -75.35 0.89, -71.36 455.11 80
